Showing default

ESSA 6 (TOS-D), 3035

Orbit data source: Space-Track

ESSA 6 (TOS-D), 3035 is a payload satellite owned by ESSA (US) in SSO that was launched on Fri, 10 Nov 1967 UTC via a THOR DELTA E1 launch vehicle from the Air Force Western Test Range (AFWTR). Payload-class satellites include a variety of spacecraft equipped with specific instruments for various scientific and technological missions. These include communications satellites like Starlink; space stations such as the ISS; scientific satellites like the Hubble; Earth observation satellites from companies like Planet Labs, Umbra, and HawkEye 360; GPS; miniature CubeSats for education and research; and military/defense satellites.

Loading next visibility...
Identifier
3035, 1967-114A
Orbit
SSO
Country
Flag of USUS
Related business
Manufacturer
RCA/East Windsor
Mission
Non-operational spacecraft
Bus & Motor
TIROS I, Unknown motor
Mass
135 kg wet, 135 kg dry
Launch date (UTC)
1967-11-10 (58 years ago)
Launch vehicle
THOR DELTA E1
Launch site
Air Force Western Test Range (AFWTR)
Object type
Payload
Rocket body
Debris
Shape & HBR
Unknown
Radar Cross Section
Medium (>0.1 m² and <1 m²)

Expand to show TLE details & history
Last TLE update: 14 hours ago

TLE from 14 hours ago
0 ESSA 6 (TOS-D)
1 03035U 67114A   25311.14466053 -.00000028  00000-0  11686-3 0  9997
2 03035 102.0134  48.1836 0048853 187.1730 238.0726 12.54246083654771
Epoch: 2025-11-07T03:28Z
TLE epoch observation values (Epoch: 2025-11-07T03:28:18.669Z)
Latitude
62.31652°
Longitude
-74.29186°
Altitude
1,477.635 km
Speed
7.121 km/s
True Right ascension
01h 37m 30s
True Declination
62° 11' 16"
Sunlit
Object was in full shadow at epoch
Visualization orbit readout
Latitude
Unknown
Longitude
Unknown
Altitude
Unknown
Speed
Unknown
Apparent Right ascension
Unknown
Apparent Declination
Unknown
Sunlit
N/A
Visualization observer readout
Local Sidereal Time
13:14:50
Azimuth
Unknown
Elevation
Unknown
Doppler factor
Unknown
Orbital elements
Apogee altitude
1,482.557 km
Perigee altitude
1,406.126 km
Semi-major axis
7,822.479 km
Eccentricity
0.00489
Inclination
102.0134°
RAAN
48.1836°
Arg. of periapsis
187.173°
True anomaly
237.59901°
Mean anomaly
238.0726°
Eccentric anomaly
237.83565°
Mean motion
3.13709 °/min
Orbital period
114.76 mins
BSTAR
0.00011686
Loading maneuver chart data...
Computing Atmospheric mass density...
Loading historical data...
Loading historical data...
Loading historical data...
Loading historical data...
Loading historical data...
Loading historical data...
Loading historical data...
Other satellites on launch #114 in the year 1967 (1967-11-10 UTC)

Documentation

Showing up to 5 results
|